Year,Month,Day,Hour,Minute,Value (Times are PST for temperature in C)
2017,07,17,00,00,15.20
2017,07,17,00,01,15.10
2017,07,17,00,02,15.10
2017,07,17,00,03,15.10
2017,07,17,00,04,15.10
2017,07,17,00,05,15.10
2017,07,17,00,06,15.10
2017,07,17,00,07,15.00
2017,07,17,00,08,15.00
2017,07,17,00,09,15.00
2017,07,17,00,10,15.00
2017,07,17,00,11,14.90
2017,07,17,00,12,14.90
2017,07,17,00,13,14.90
2017,07,17,00,14,14.90
2017,07,17,00,15,14.90
2017,07,17,00,16,14.90
2017,07,17,00,17,14.90
2017,07,17,00,18,14.80
2017,07,17,00,19,14.80
2017,07,17,00,20,14.80
2017,07,17,00,21,14.80
2017,07,17,00,22,14.80
2017,07,17,00,23,14.80
2017,07,17,00,24,14.70
2017,07,17,00,25,14.70
2017,07,17,00,26,14.70
2017,07,17,00,27,14.70
2017,07,17,00,28,14.70
2017,07,17,00,29,14.70
2017,07,17,00,30,14.60
2017,07,17,00,31,14.60
2017,07,17,00,32,14.60
2017,07,17,00,33,14.60
2017,07,17,00,34,14.60
2017,07,17,00,35,14.60
2017,07,17,00,36,14.60
2017,07,17,00,37,14.60
2017,07,17,00,38,14.60
2017,07,17,00,39,14.60
2017,07,17,00,40,14.60
2017,07,17,00,41,14.60
2017,07,17,00,42,14.60
2017,07,17,00,43,14.60
2017,07,17,00,44,14.60
2017,07,17,00,45,14.60
2017,07,17,00,46,14.50
2017,07,17,00,47,14.50
2017,07,17,00,48,14.50
2017,07,17,00,49,14.50
2017,07,17,00,50,14.40
2017,07,17,00,51,14.40
2017,07,17,00,52,14.40
2017,07,17,00,53,14.40
2017,07,17,00,54,14.40
2017,07,17,00,55,14.40
2017,07,17,00,56,14.40
2017,07,17,00,57,14.30
2017,07,17,00,58,14.30
2017,07,17,00,59,14.30
2017,07,17,01,00,14.30
2017,07,17,01,01,14.30
2017,07,17,01,02,14.20
2017,07,17,01,03,14.20
2017,07,17,01,04,14.20
2017,07,17,01,05,14.20
2017,07,17,01,06,14.20
2017,07,17,01,07,14.20
2017,07,17,01,08,14.20
2017,07,17,01,09,14.20
2017,07,17,01,10,14.20
2017,07,17,01,11,14.20
2017,07,17,01,12,14.20
2017,07,17,01,13,14.20
2017,07,17,01,14,14.20
2017,07,17,01,15,14.20
2017,07,17,01,16,14.20
2017,07,17,01,17,14.20
2017,07,17,01,18,14.10
2017,07,17,01,19,14.10
2017,07,17,01,20,14.10
2017,07,17,01,21,14.10
2017,07,17,01,22,14.10
2017,07,17,01,23,14.00
2017,07,17,01,24,14.00
2017,07,17,01,25,14.00
2017,07,17,01,26,13.90
2017,07,17,01,27,13.90
2017,07,17,01,28,13.80
2017,07,17,01,29,13.80
2017,07,17,01,30,13.80
2017,07,17,01,31,13.70
2017,07,17,01,32,13.70
2017,07,17,01,33,13.60
2017,07,17,01,34,13.60
2017,07,17,01,35,13.60
2017,07,17,01,36,13.60
2017,07,17,01,37,13.60
2017,07,17,01,38,13.60
2017,07,17,01,39,13.70
2017,07,17,01,40,13.70
2017,07,17,01,41,13.70
2017,07,17,01,42,13.70
2017,07,17,01,43,13.70
2017,07,17,01,44,13.70
2017,07,17,01,45,13.80
2017,07,17,01,46,13.80
2017,07,17,01,47,13.80
2017,07,17,01,48,13.80
2017,07,17,01,49,13.80
2017,07,17,01,50,13.80
2017,07,17,01,51,13.90
2017,07,17,01,52,13.90
2017,07,17,01,53,13.90
2017,07,17,01,54,13.90
2017,07,17,01,55,13.90
2017,07,17,01,56,13.90
2017,07,17,01,57,13.90
2017,07,17,01,58,13.90
2017,07,17,01,59,13.90
2017,07,17,02,00,13.90
2017,07,17,02,01,13.90
2017,07,17,02,02,13.80
2017,07,17,02,03,13.80
2017,07,17,02,04,13.80
2017,07,17,02,05,13.80
2017,07,17,02,06,13.80
2017,07,17,02,07,13.80
2017,07,17,02,08,13.80
2017,07,17,02,09,13.80
2017,07,17,02,10,13.70
2017,07,17,02,11,13.70
2017,07,17,02,12,13.70
2017,07,17,02,13,13.70
2017,07,17,02,14,13.70
2017,07,17,02,15,13.60
2017,07,17,02,16,13.60
2017,07,17,02,17,13.60
2017,07,17,02,18,13.60
2017,07,17,02,19,13.60
2017,07,17,02,20,13.60
2017,07,17,02,21,13.60
2017,07,17,02,22,13.60
2017,07,17,02,23,13.60
2017,07,17,02,24,13.60
2017,07,17,02,25,13.50
2017,07,17,02,26,13.50
2017,07,17,02,27,13.50
2017,07,17,02,28,13.50
2017,07,17,02,29,13.50
2017,07,17,02,30,13.40
2017,07,17,02,31,13.40
2017,07,17,02,32,13.40
2017,07,17,02,33,13.40
2017,07,17,02,34,13.40
2017,07,17,02,35,13.30
2017,07,17,02,36,13.30
2017,07,17,02,37,13.30
2017,07,17,02,38,13.30
2017,07,17,02,39,13.30
2017,07,17,02,40,13.30
2017,07,17,02,41,13.30
2017,07,17,02,42,13.30
2017,07,17,02,43,13.20
2017,07,17,02,44,13.20
2017,07,17,02,45,13.20
2017,07,17,02,46,13.20
2017,07,17,02,47,13.20
2017,07,17,02,48,13.20
2017,07,17,02,49,13.20
2017,07,17,02,50,13.10
2017,07,17,02,51,13.10
2017,07,17,02,52,13.10
2017,07,17,02,53,13.10
2017,07,17,02,54,13.10
2017,07,17,02,55,13.10
2017,07,17,02,56,13.10
2017,07,17,02,57,13.10
2017,07,17,02,58,13.10
2017,07,17,02,59,13.10
2017,07,17,03,00,13.10
2017,07,17,03,01,13.10
2017,07,17,03,02,13.10
2017,07,17,03,03,13.10
2017,07,17,03,04,13.10
2017,07,17,03,05,13.10
2017,07,17,03,06,13.10
2017,07,17,03,07,13.10
2017,07,17,03,08,13.10
2017,07,17,03,09,13.00
2017,07,17,03,10,13.00
2017,07,17,03,11,13.00
2017,07,17,03,12,13.00
2017,07,17,03,13,13.00
2017,07,17,03,14,12.90
2017,07,17,03,15,12.90
2017,07,17,03,16,12.90
2017,07,17,03,17,12.90
2017,07,17,03,18,12.90
2017,07,17,03,19,12.90
2017,07,17,03,20,12.90
2017,07,17,03,21,12.90
2017,07,17,03,22,12.90
2017,07,17,03,23,12.80
2017,07,17,03,24,12.80
2017,07,17,03,25,12.80
2017,07,17,03,26,12.80
2017,07,17,03,27,12.80
2017,07,17,03,28,12.80
2017,07,17,03,29,12.80
2017,07,17,03,30,12.80
2017,07,17,03,31,12.80
2017,07,17,03,32,12.80
2017,07,17,03,33,12.80
2017,07,17,03,34,12.80
2017,07,17,03,35,12.80
2017,07,17,03,36,12.70
2017,07,17,03,37,12.70
2017,07,17,03,38,12.70
2017,07,17,03,39,12.70
2017,07,17,03,40,12.70
2017,07,17,03,41,12.70
2017,07,17,03,42,12.70
2017,07,17,03,43,12.70
2017,07,17,03,44,12.70
2017,07,17,03,45,12.70
2017,07,17,03,46,12.60
2017,07,17,03,47,12.60
2017,07,17,03,48,12.60
2017,07,17,03,49,12.70
2017,07,17,03,50,12.70
2017,07,17,03,51,12.70
2017,07,17,03,52,12.80
2017,07,17,03,53,12.80
2017,07,17,03,54,12.80
2017,07,17,03,55,12.80
2017,07,17,03,56,12.80
2017,07,17,03,57,12.80
2017,07,17,03,58,12.80
2017,07,17,03,59,12.80
2017,07,17,04,00,12.80
2017,07,17,04,01,12.80
2017,07,17,04,02,12.80
2017,07,17,04,03,12.80
2017,07,17,04,04,12.80
2017,07,17,04,05,12.80
2017,07,17,04,06,12.80
2017,07,17,04,07,12.70
2017,07,17,04,08,12.70
2017,07,17,04,09,12.70
2017,07,17,04,10,12.70
2017,07,17,04,11,12.60
2017,07,17,04,12,12.60
2017,07,17,04,13,12.60
2017,07,17,04,14,12.60
2017,07,17,04,15,12.50
2017,07,17,04,16,12.50
2017,07,17,04,17,12.50
2017,07,17,04,18,12.50
2017,07,17,04,19,12.50
2017,07,17,04,20,12.50
2017,07,17,04,21,12.40
2017,07,17,04,22,12.40
2017,07,17,04,23,12.50
2017,07,17,04,24,12.50
2017,07,17,04,25,12.50
2017,07,17,04,26,12.50
2017,07,17,04,27,12.50
2017,07,17,04,28,12.50
2017,07,17,04,29,12.50
2017,07,17,04,30,12.50
2017,07,17,04,31,12.40
2017,07,17,04,32,12.40
2017,07,17,04,33,12.40
2017,07,17,04,34,12.40
2017,07,17,04,35,12.40
2017,07,17,04,36,12.40
2017,07,17,04,37,12.30
2017,07,17,04,38,12.30
2017,07,17,04,39,12.30
2017,07,17,04,40,12.30
2017,07,17,04,41,12.20
2017,07,17,04,42,12.20
2017,07,17,04,43,12.20
2017,07,17,04,44,12.20
2017,07,17,04,45,12.20
2017,07,17,04,46,12.20
2017,07,17,04,47,12.20
2017,07,17,04,48,12.20
2017,07,17,04,49,12.20
2017,07,17,04,50,12.20
2017,07,17,04,51,12.20
2017,07,17,04,52,12.20
2017,07,17,04,53,12.20
2017,07,17,04,54,12.20
2017,07,17,04,55,12.20
2017,07,17,04,56,12.20
2017,07,17,04,57,12.10
2017,07,17,04,58,12.10
2017,07,17,04,59,12.10
2017,07,17,05,00,12.10
2017,07,17,05,01,12.00
2017,07,17,05,02,12.00
2017,07,17,05,03,12.00
2017,07,17,05,04,11.90
2017,07,17,05,05,11.90
2017,07,17,05,06,11.90
2017,07,17,05,07,11.80
2017,07,17,05,08,11.80
2017,07,17,05,09,11.80
2017,07,17,05,10,11.80
2017,07,17,05,11,11.80
2017,07,17,05,12,11.80
2017,07,17,05,13,11.80
2017,07,17,05,14,11.80
2017,07,17,05,15,11.80
2017,07,17,05,16,11.80
2017,07,17,05,17,11.80
2017,07,17,05,18,11.80
2017,07,17,05,19,11.80
2017,07,17,05,20,11.80
2017,07,17,05,21,11.80
2017,07,17,05,22,11.80
2017,07,17,05,23,11.80
2017,07,17,05,24,11.80
2017,07,17,05,25,11.80
2017,07,17,05,26,11.80
2017,07,17,05,27,11.80
2017,07,17,05,28,11.90
2017,07,17,05,29,11.90
2017,07,17,05,30,11.90
2017,07,17,05,31,11.90
2017,07,17,05,32,11.80
2017,07,17,05,33,11.80
2017,07,17,05,34,11.80
2017,07,17,05,35,11.80
2017,07,17,05,36,11.80
2017,07,17,05,37,11.80
2017,07,17,05,38,11.80
2017,07,17,05,39,11.80
2017,07,17,05,40,11.80
2017,07,17,05,41,11.80
2017,07,17,05,42,11.80
2017,07,17,05,43,11.80
2017,07,17,05,44,11.80
2017,07,17,05,45,11.80
2017,07,17,05,46,11.80
2017,07,17,05,47,11.80
2017,07,17,05,48,11.80
2017,07,17,05,49,11.80
2017,07,17,05,50,11.80
2017,07,17,05,51,11.80
2017,07,17,05,52,11.80
2017,07,17,05,53,11.80
2017,07,17,05,54,11.80
2017,07,17,05,55,11.80
2017,07,17,05,56,11.80
2017,07,17,05,57,11.80
2017,07,17,05,58,11.80
2017,07,17,05,59,11.80
2017,07,17,06,00,11.80
2017,07,17,06,01,11.80
2017,07,17,06,02,11.80
2017,07,17,06,03,11.90
2017,07,17,06,04,11.90
2017,07,17,06,05,11.90
2017,07,17,06,06,11.90
2017,07,17,06,07,11.90
2017,07,17,06,08,12.00
2017,07,17,06,09,12.00
2017,07,17,06,10,12.00
2017,07,17,06,11,12.00
2017,07,17,06,12,12.10
2017,07,17,06,13,12.10
2017,07,17,06,14,12.10
2017,07,17,06,15,12.10
2017,07,17,06,16,12.10
2017,07,17,06,17,12.10
2017,07,17,06,18,12.10
2017,07,17,06,19,12.10
2017,07,17,06,20,12.10
2017,07,17,06,21,12.10
2017,07,17,06,22,12.10
2017,07,17,06,23,12.10
2017,07,17,06,24,12.00
2017,07,17,06,25,12.00
2017,07,17,06,26,12.00
2017,07,17,06,27,12.00
2017,07,17,06,28,12.00
2017,07,17,06,29,12.00
2017,07,17,06,30,12.00
2017,07,17,06,31,12.00
2017,07,17,06,32,12.00
2017,07,17,06,33,12.00
2017,07,17,06,34,12.00
2017,07,17,06,35,12.00
2017,07,17,06,36,12.00
2017,07,17,06,37,12.00
2017,07,17,06,38,12.00
2017,07,17,06,39,12.00
2017,07,17,06,40,12.10
2017,07,17,06,41,12.10
2017,07,17,06,42,12.10
2017,07,17,06,43,12.10
2017,07,17,06,44,12.10
2017,07,17,06,45,12.10
2017,07,17,06,46,12.10
2017,07,17,06,47,12.20
2017,07,17,06,48,12.20
2017,07,17,06,49,12.20
2017,07,17,06,50,12.20
2017,07,17,06,51,12.20
2017,07,17,06,52,12.20
2017,07,17,06,53,12.20
2017,07,17,06,54,12.30
2017,07,17,06,55,12.30
2017,07,17,06,56,12.30
2017,07,17,06,57,12.30
2017,07,17,06,58,12.30
2017,07,17,06,59,12.30
2017,07,17,07,00,12.40
2017,07,17,07,01,12.40
2017,07,17,07,02,12.40
2017,07,17,07,03,12.40
2017,07,17,07,04,12.40
2017,07,17,07,05,12.50
2017,07,17,07,06,12.50
2017,07,17,07,07,12.50
2017,07,17,07,08,12.50
2017,07,17,07,09,12.60
2017,07,17,07,10,12.60
2017,07,17,07,11,12.60
2017,07,17,07,12,12.70
2017,07,17,07,13,12.70
2017,07,17,07,14,12.70
2017,07,17,07,15,12.70
2017,07,17,07,16,12.80
2017,07,17,07,17,12.80
2017,07,17,07,18,12.90
2017,07,17,07,19,12.90
2017,07,17,07,20,12.90
2017,07,17,07,21,12.90
2017,07,17,07,22,12.90
2017,07,17,07,23,12.90
2017,07,17,07,24,12.90
2017,07,17,07,25,12.90
2017,07,17,07,26,12.90
2017,07,17,07,27,12.90
2017,07,17,07,28,12.90
2017,07,17,07,29,12.90
2017,07,17,07,30,12.90
2017,07,17,07,31,12.90
2017,07,17,07,32,13.00
2017,07,17,07,33,13.00
2017,07,17,07,34,13.00
2017,07,17,07,35,13.00
2017,07,17,07,36,13.10
2017,07,17,07,37,13.10
2017,07,17,07,38,13.10
2017,07,17,07,39,13.10
2017,07,17,07,40,13.10
2017,07,17,07,41,13.10
2017,07,17,07,42,13.20
2017,07,17,07,43,13.20
2017,07,17,07,44,13.20
2017,07,17,07,45,13.20
2017,07,17,07,46,13.20
2017,07,17,07,47,13.30
2017,07,17,07,48,13.30
2017,07,17,07,49,13.30
2017,07,17,07,50,13.40
2017,07,17,07,51,13.40
2017,07,17,07,52,13.40
2017,07,17,07,53,13.40
2017,07,17,07,54,13.40
2017,07,17,07,55,13.40
2017,07,17,07,56,13.50
2017,07,17,07,57,13.50
2017,07,17,07,58,13.50
2017,07,17,07,59,13.60
2017,07,17,08,00,13.60
2017,07,17,08,01,13.60
2017,07,17,08,02,13.60
2017,07,17,08,03,13.60
2017,07,17,08,04,13.60
2017,07,17,08,05,13.60
2017,07,17,08,06,13.70
2017,07,17,08,07,13.70
2017,07,17,08,08,13.80
2017,07,17,08,09,13.80
2017,07,17,08,10,13.90
2017,07,17,08,11,13.90
2017,07,17,08,12,13.90
2017,07,17,08,13,13.90
2017,07,17,08,14,14.00
2017,07,17,08,15,14.00
2017,07,17,08,16,14.10
2017,07,17,08,17,14.10
2017,07,17,08,18,14.20
2017,07,17,08,19,14.20
2017,07,17,08,20,14.20
2017,07,17,08,21,14.20
2017,07,17,08,22,14.20
2017,07,17,08,23,14.20
2017,07,17,08,24,14.30
2017,07,17,08,25,14.30
2017,07,17,08,26,14.30
2017,07,17,08,27,14.30
2017,07,17,08,28,14.40
2017,07,17,08,29,14.40
2017,07,17,08,30,14.30
2017,07,17,08,31,14.30
2017,07,17,08,32,14.30
2017,07,17,08,33,14.40
2017,07,17,08,34,14.40
2017,07,17,08,35,14.40
2017,07,17,08,36,14.50
2017,07,17,08,37,14.60
2017,07,17,08,38,14.60
2017,07,17,08,39,14.60
2017,07,17,08,40,14.60
2017,07,17,08,41,14.60
2017,07,17,08,42,14.60
2017,07,17,08,43,14.60
2017,07,17,08,44,14.60
2017,07,17,08,45,14.70
2017,07,17,08,46,14.70
2017,07,17,08,47,14.80
2017,07,17,08,48,14.80
2017,07,17,08,49,14.80
2017,07,17,08,50,14.90
2017,07,17,08,51,14.90
2017,07,17,08,52,15.00
2017,07,17,08,53,15.00
2017,07,17,08,54,15.00
2017,07,17,08,55,15.00
2017,07,17,08,56,15.00
2017,07,17,08,57,15.10
2017,07,17,08,58,15.10
2017,07,17,08,59,15.10
2017,07,17,09,00,15.00
2017,07,17,09,01,15.00
2017,07,17,09,02,15.00
2017,07,17,09,03,15.10
2017,07,17,09,04,15.10
2017,07,17,09,05,15.20
2017,07,17,09,06,15.20
2017,07,17,09,07,15.20
2017,07,17,09,08,15.20
2017,07,17,09,09,15.30
2017,07,17,09,10,15.30
2017,07,17,09,11,15.30
2017,07,17,09,12,15.30
2017,07,17,09,13,15.40
2017,07,17,09,14,15.40
2017,07,17,09,15,15.40
2017,07,17,09,16,15.40
2017,07,17,09,17,15.50
2017,07,17,09,18,15.50
2017,07,17,09,19,15.50
2017,07,17,09,20,15.60
2017,07,17,09,21,15.60
2017,07,17,09,22,15.60
2017,07,17,09,23,15.60
2017,07,17,09,24,15.70
2017,07,17,09,25,15.70
2017,07,17,09,26,15.80
2017,07,17,09,27,15.80
2017,07,17,09,28,15.90
2017,07,17,09,29,15.90
2017,07,17,09,30,16.00
2017,07,17,09,31,16.00
2017,07,17,09,32,16.10
2017,07,17,09,33,16.10
2017,07,17,09,34,16.10
2017,07,17,09,35,16.10
2017,07,17,09,36,16.10
2017,07,17,09,37,16.20
2017,07,17,09,38,16.20
2017,07,17,09,39,16.20
2017,07,17,09,40,16.20
2017,07,17,09,41,16.20
2017,07,17,09,42,16.20
2017,07,17,09,43,16.20
2017,07,17,09,44,16.20
2017,07,17,09,45,16.20
2017,07,17,09,46,16.20
2017,07,17,09,47,16.20
2017,07,17,09,48,16.20
2017,07,17,09,49,16.20
2017,07,17,09,50,16.20
2017,07,17,09,51,16.10
2017,07,17,09,52,16.00
2017,07,17,09,53,16.00
2017,07,17,09,54,15.90
2017,07,17,09,55,15.90
2017,07,17,09,56,15.90
2017,07,17,09,57,15.90
2017,07,17,09,58,15.90
2017,07,17,09,59,16.00
2017,07,17,10,00,16.00
2017,07,17,10,01,16.10
2017,07,17,10,02,16.10
2017,07,17,10,03,16.10
2017,07,17,10,04,16.20
2017,07,17,10,05,16.30
2017,07,17,10,06,16.40
2017,07,17,10,07,16.40
2017,07,17,10,08,16.50
2017,07,17,10,09,16.60
2017,07,17,10,10,16.60
2017,07,17,10,11,16.70
2017,07,17,10,12,16.70
2017,07,17,10,13,16.80
2017,07,17,10,14,16.70
2017,07,17,10,15,16.70
2017,07,17,10,16,16.80
2017,07,17,10,17,16.80
2017,07,17,10,18,16.80
2017,07,17,10,19,16.90
2017,07,17,10,20,16.90
2017,07,17,10,21,16.90
2017,07,17,10,22,16.90
2017,07,17,10,23,17.00
2017,07,17,10,24,17.00
2017,07,17,10,25,17.10
2017,07,17,10,26,17.10
2017,07,17,10,27,17.10
2017,07,17,10,28,17.10
2017,07,17,10,29,17.20
2017,07,17,10,30,17.20
2017,07,17,10,31,17.20
2017,07,17,10,32,17.20
2017,07,17,10,33,17.20
2017,07,17,10,34,17.20
2017,07,17,10,35,17.30
2017,07,17,10,36,17.30
2017,07,17,10,37,17.40
2017,07,17,10,38,17.40
2017,07,17,10,39,17.40
2017,07,17,10,40,17.50
2017,07,17,10,41,17.50
2017,07,17,10,42,17.50
2017,07,17,10,43,17.50
2017,07,17,10,44,17.40
2017,07,17,10,45,17.50
2017,07,17,10,46,17.60
2017,07,17,10,47,17.60
2017,07,17,10,48,17.70
2017,07,17,10,49,17.60
2017,07,17,10,50,17.60
2017,07,17,10,51,17.60
2017,07,17,10,52,17.50
2017,07,17,10,53,17.40
2017,07,17,10,54,17.40
2017,07,17,10,55,17.50
2017,07,17,10,56,17.60
2017,07,17,10,57,17.70
2017,07,17,10,58,17.70
2017,07,17,10,59,17.80
2017,07,17,11,00,17.90
2017,07,17,11,01,17.90
2017,07,17,11,02,18.00
2017,07,17,11,03,18.10
2017,07,17,11,04,18.10
2017,07,17,11,05,18.20
2017,07,17,11,06,18.20
2017,07,17,11,07,18.30
2017,07,17,11,08,18.30
2017,07,17,11,09,18.30
2017,07,17,11,10,18.30
2017,07,17,11,11,18.40
2017,07,17,11,12,18.40
2017,07,17,11,13,18.40
2017,07,17,11,14,18.40
2017,07,17,11,15,18.50
2017,07,17,11,16,18.50
2017,07,17,11,17,18.60
2017,07,17,11,18,18.60
2017,07,17,11,19,18.60
2017,07,17,11,20,18.70
2017,07,17,11,21,18.70
2017,07,17,11,22,18.70
2017,07,17,11,23,18.70
2017,07,17,11,24,18.70
2017,07,17,11,25,18.70
2017,07,17,11,26,18.70
2017,07,17,11,27,18.70
2017,07,17,11,28,18.80
2017,07,17,11,29,18.80
2017,07,17,11,30,18.80
2017,07,17,11,31,18.80
2017,07,17,11,32,18.90
2017,07,17,11,33,18.80
2017,07,17,11,34,18.80
2017,07,17,11,35,18.70
2017,07,17,11,36,18.60
2017,07,17,11,37,18.60
2017,07,17,11,38,18.60
2017,07,17,11,39,18.60
2017,07,17,11,40,18.70
2017,07,17,11,41,18.70
2017,07,17,11,42,18.70
2017,07,17,11,43,18.70
2017,07,17,11,44,18.70
2017,07,17,11,45,18.70
2017,07,17,11,46,18.70
2017,07,17,11,47,18.70
2017,07,17,11,48,18.80
2017,07,17,11,49,18.80
2017,07,17,11,50,18.80
2017,07,17,11,51,18.80
2017,07,17,11,52,18.80
2017,07,17,11,53,18.70
2017,07,17,11,54,18.70
2017,07,17,11,55,18.80
2017,07,17,11,56,18.80
2017,07,17,11,57,18.80
2017,07,17,11,58,18.80
2017,07,17,11,59,18.80
2017,07,17,12,00,18.80
2017,07,17,12,01,18.80
2017,07,17,12,02,18.80
2017,07,17,12,03,18.70
2017,07,17,12,04,18.70
2017,07,17,12,05,18.70
2017,07,17,12,06,18.60
2017,07,17,12,07,18.50
2017,07,17,12,08,18.40
2017,07,17,12,09,18.30
2017,07,17,12,10,18.30
2017,07,17,12,11,18.30
2017,07,17,12,12,18.30
2017,07,17,12,13,18.30
2017,07,17,12,14,18.30
2017,07,17,12,15,18.30
2017,07,17,12,16,18.30
2017,07,17,12,17,18.40
2017,07,17,12,18,18.50
2017,07,17,12,19,18.60
2017,07,17,12,20,18.70
2017,07,17,12,21,18.80
2017,07,17,12,22,18.90
2017,07,17,12,23,18.90
2017,07,17,12,24,18.90
2017,07,17,12,25,19.00
2017,07,17,12,26,19.10
2017,07,17,12,27,19.10
2017,07,17,12,28,19.20
2017,07,17,12,29,19.20
2017,07,17,12,30,19.20
2017,07,17,12,31,19.20
2017,07,17,12,32,19.20
2017,07,17,12,33,19.20
2017,07,17,12,34,19.10
2017,07,17,12,35,19.10
2017,07,17,12,36,19.10
2017,07,17,12,37,19.10
2017,07,17,12,38,19.10
2017,07,17,12,39,19.20
2017,07,17,12,40,19.20
2017,07,17,12,41,19.30
2017,07,17,12,42,19.40
2017,07,17,12,43,19.50
2017,07,17,12,44,19.60
2017,07,17,12,45,19.60
2017,07,17,12,46,19.50
2017,07,17,12,47,19.50
2017,07,17,12,48,19.50
2017,07,17,12,49,19.40
2017,07,17,12,50,19.40
2017,07,17,12,51,19.40
2017,07,17,12,52,19.50
2017,07,17,12,53,19.60
2017,07,17,12,54,19.60
2017,07,17,12,55,19.70
2017,07,17,12,56,19.70
2017,07,17,12,57,19.70
2017,07,17,12,58,19.70
2017,07,17,12,59,19.70
2017,07,17,13,00,19.70
2017,07,17,13,01,19.70
2017,07,17,13,02,19.80
2017,07,17,13,03,19.90
2017,07,17,13,04,20.00
2017,07,17,13,05,20.10
2017,07,17,13,06,20.20
2017,07,17,13,07,20.30
2017,07,17,13,08,20.40
2017,07,17,13,09,20.50
2017,07,17,13,10,20.60
2017,07,17,13,11,20.70
2017,07,17,13,12,20.70
2017,07,17,13,13,20.80
2017,07,17,13,14,20.80
2017,07,17,13,15,20.80
2017,07,17,13,16,20.80
2017,07,17,13,17,20.80
2017,07,17,13,18,20.80
2017,07,17,13,19,20.80
2017,07,17,13,20,20.80
2017,07,17,13,21,20.90
2017,07,17,13,22,20.90
2017,07,17,13,23,21.00
2017,07,17,13,24,21.00
2017,07,17,13,25,21.00
2017,07,17,13,26,21.10
2017,07,17,13,27,21.10
2017,07,17,13,28,21.20
2017,07,17,13,29,21.30
2017,07,17,13,30,21.40
2017,07,17,13,31,21.40
2017,07,17,13,32,21.40
2017,07,17,13,33,21.30
2017,07,17,13,34,21.30
2017,07,17,13,35,21.20
2017,07,17,13,36,21.20
2017,07,17,13,37,21.10
2017,07,17,13,38,21.10
2017,07,17,13,39,21.00
2017,07,17,13,40,21.00
2017,07,17,13,41,21.00
2017,07,17,13,42,21.00
2017,07,17,13,43,21.00
2017,07,17,13,44,21.00
2017,07,17,13,45,21.00
2017,07,17,13,46,21.00
2017,07,17,13,47,21.00
2017,07,17,13,48,21.10
2017,07,17,13,49,21.10
2017,07,17,13,50,21.10
2017,07,17,13,51,21.20
2017,07,17,13,52,21.20
2017,07,17,13,53,21.20
2017,07,17,13,54,21.30
2017,07,17,13,55,21.30
2017,07,17,13,56,21.30
2017,07,17,13,57,21.30
2017,07,17,13,58,21.40
2017,07,17,13,59,21.50
2017,07,17,14,00,21.60
2017,07,17,14,01,21.70
2017,07,17,14,02,21.80
2017,07,17,14,03,21.90
2017,07,17,14,04,22.00
2017,07,17,14,05,22.00
2017,07,17,14,06,22.00
2017,07,17,14,07,21.90
2017,07,17,14,08,21.90
2017,07,17,14,09,21.80
2017,07,17,14,10,21.80
2017,07,17,14,11,21.80
2017,07,17,14,12,21.80
2017,07,17,14,13,21.80
2017,07,17,14,14,21.90
2017,07,17,14,15,21.90
2017,07,17,14,16,21.90
2017,07,17,14,17,22.00
2017,07,17,14,18,22.00
2017,07,17,14,19,22.00
2017,07,17,14,20,22.00
2017,07,17,14,21,21.90
2017,07,17,14,22,21.90
2017,07,17,14,23,21.90
2017,07,17,14,24,22.00
2017,07,17,14,25,22.10
2017,07,17,14,26,22.10
2017,07,17,14,27,22.20
2017,07,17,14,28,22.20
2017,07,17,14,29,22.20
2017,07,17,14,30,22.20
2017,07,17,14,31,22.20
2017,07,17,14,32,22.30
2017,07,17,14,33,22.30
2017,07,17,14,34,22.20
2017,07,17,14,35,22.20
2017,07,17,14,36,22.20
2017,07,17,14,37,22.20
2017,07,17,14,38,22.30
2017,07,17,14,39,22.30
2017,07,17,14,40,22.30
2017,07,17,14,41,22.30
2017,07,17,14,42,22.30
2017,07,17,14,43,22.30
2017,07,17,14,44,22.30
2017,07,17,14,45,22.30
2017,07,17,14,46,22.30
2017,07,17,14,47,22.30
2017,07,17,14,48,22.30
2017,07,17,14,49,22.30
2017,07,17,14,50,22.30
2017,07,17,14,51,22.30
2017,07,17,14,52,22.30
2017,07,17,14,53,22.40
2017,07,17,14,54,22.40
2017,07,17,14,55,22.40
2017,07,17,14,56,22.40
2017,07,17,14,57,22.40
2017,07,17,14,58,22.40
2017,07,17,14,59,22.50
2017,07,17,15,00,22.50
2017,07,17,15,01,22.60
2017,07,17,15,02,22.60
2017,07,17,15,03,22.60
2017,07,17,15,04,22.60
2017,07,17,15,05,22.60
2017,07,17,15,06,22.60
2017,07,17,15,07,22.50
2017,07,17,15,08,22.50
2017,07,17,15,09,22.50
2017,07,17,15,10,22.50
2017,07,17,15,11,22.50
2017,07,17,15,12,22.60
2017,07,17,15,13,22.60
2017,07,17,15,14,22.60
2017,07,17,15,15,22.70
2017,07,17,15,16,22.80
2017,07,17,15,17,22.90
2017,07,17,15,18,23.00
2017,07,17,15,19,23.00
2017,07,17,15,20,23.10
2017,07,17,15,21,23.20
2017,07,17,15,22,23.20
2017,07,17,15,23,23.30
2017,07,17,15,24,23.30
2017,07,17,15,25,23.30
2017,07,17,15,26,23.30
2017,07,17,15,27,23.30
2017,07,17,15,28,23.30
2017,07,17,15,29,23.40
2017,07,17,15,30,23.50
2017,07,17,15,31,23.50
2017,07,17,15,32,23.50
2017,07,17,15,33,23.50
2017,07,17,15,34,23.60
2017,07,17,15,35,23.60
2017,07,17,15,36,23.50
2017,07,17,15,37,23.50
2017,07,17,15,38,23.40
2017,07,17,15,39,23.40
2017,07,17,15,40,23.40
2017,07,17,15,41,23.50
2017,07,17,15,42,23.40
2017,07,17,15,43,23.40
2017,07,17,15,44,23.40
2017,07,17,15,45,23.50
2017,07,17,15,46,23.50
2017,07,17,15,47,23.50
2017,07,17,15,48,23.50
2017,07,17,15,49,23.60
2017,07,17,15,50,23.60
2017,07,17,15,51,23.70
2017,07,17,15,52,23.70
2017,07,17,15,53,23.70
2017,07,17,15,54,23.80
2017,07,17,15,55,23.80
2017,07,17,15,56,23.80
2017,07,17,15,57,23.90
2017,07,17,15,58,23.90
2017,07,17,15,59,23.90
2017,07,17,16,00,24.00
2017,07,17,16,01,24.00
2017,07,17,16,02,24.10
2017,07,17,16,03,24.10
2017,07,17,16,04,24.10
2017,07,17,16,05,24.10
2017,07,17,16,06,24.00
2017,07,17,16,07,23.90
2017,07,17,16,08,23.90
2017,07,17,16,09,23.80
2017,07,17,16,10,23.90
2017,07,17,16,11,23.90
2017,07,17,16,12,23.90
2017,07,17,16,13,23.90
2017,07,17,16,14,23.80
2017,07,17,16,15,23.80
2017,07,17,16,16,23.90
2017,07,17,16,17,23.90
2017,07,17,16,18,23.90
2017,07,17,16,19,23.90
2017,07,17,16,20,23.90
2017,07,17,16,21,24.00
2017,07,17,16,22,24.00
2017,07,17,16,23,24.10
2017,07,17,16,24,24.00
2017,07,17,16,25,24.00
2017,07,17,16,26,23.90
2017,07,17,16,27,23.90
2017,07,17,16,28,23.80
2017,07,17,16,29,23.80
2017,07,17,16,30,23.80
2017,07,17,16,31,23.80
2017,07,17,16,32,23.90
2017,07,17,16,33,23.90
2017,07,17,16,34,23.90
2017,07,17,16,35,23.90
2017,07,17,16,36,24.00
2017,07,17,16,37,24.00
2017,07,17,16,38,24.10
2017,07,17,16,39,24.10
2017,07,17,16,40,24.10
2017,07,17,16,41,24.10
2017,07,17,16,42,24.10
2017,07,17,16,43,24.10
2017,07,17,16,44,24.10
2017,07,17,16,45,24.10
2017,07,17,16,46,24.00
2017,07,17,16,47,23.90
2017,07,17,16,48,23.90
2017,07,17,16,49,23.90
2017,07,17,16,50,23.90
2017,07,17,16,51,23.90
2017,07,17,16,52,23.90
2017,07,17,16,53,23.90
2017,07,17,16,54,23.90
2017,07,17,16,55,23.90
2017,07,17,16,56,24.00
2017,07,17,16,57,24.00
2017,07,17,16,58,24.10
2017,07,17,16,59,24.10
2017,07,17,17,00,24.20
2017,07,17,17,01,24.30
2017,07,17,17,02,24.40
2017,07,17,17,03,24.40
2017,07,17,17,04,24.50
2017,07,17,17,05,24.50
2017,07,17,17,06,24.50
2017,07,17,17,07,24.40
2017,07,17,17,08,24.40
2017,07,17,17,09,24.30
2017,07,17,17,10,24.20
2017,07,17,17,11,24.20
2017,07,17,17,12,24.10
2017,07,17,17,13,24.10
2017,07,17,17,14,24.20
2017,07,17,17,15,24.20
2017,07,17,17,16,24.20
2017,07,17,17,17,24.20
2017,07,17,17,18,24.30
2017,07,17,17,19,24.30